| time (UTC) | temp F | wind direction | speed MPH | gust MPH | rain 1hr in | rain 24hr in | rain mn in | humidity % | barometer mb |
| 20260506093015 | 78 | 158 | 5.0 | 7.0 | 0.00 | 0.00 | 0.00 | 88 | 1006.5 |
| 20260506092512 | 78 | 168 | 5.0 | 9.0 | 0.00 | 0.00 | 0.00 | 88 | 1006.5 |
| 20260506092012 | 78 | 161 | 5.0 | 9.0 | 0.00 | 0.00 | 0.00 | 87 | 1006.6 |
| 20260506091512 | 78 | 156 | 6.0 | 9.0 | 0.00 | 0.00 | 0.00 | 87 | 1006.6 |
| 20260506091012 | 78 | 144 | 7.0 | 14.0 | 0.00 | 0.00 | 0.00 | 86 | 1006.6 |
| 20260506090512 | 78 | 151 | 9.0 | 12.0 | 0.00 | 0.00 | 0.00 | 85 | 1006.5 |
| 20260506090012 | 78 | 156 | 8.0 | 12.0 | 0.00 | 0.00 | 0.00 | 85 | 1006.4 |
| 20260506085513 | 78 | 156 | 8.0 | 12.0 | 0.00 | 0.00 | 0.00 | 85 | 1006.3 |
| 20260506085011 | 78 | 151 | 9.0 | 13.0 | 0.00 | 0.00 | 0.00 | 86 | 1006.3 |
| 20260506084512 | 78 | 159 | 7.0 | 12.0 | 0.00 | 0.00 | 0.00 | 85 | 1006.3 |
| 20260506083512 | 79 | 161 | 7.0 | 12.0 | 0.00 | 0.00 | 0.00 | 85 | 1006.4 |
| 20260506083012 | 79 | 152 | 7.0 | 10.0 | 0.00 | 0.00 | 0.00 | 85 | 1006.4 |
| 20260506082012 | 78 | 163 | 9.0 | 14.0 | 0.00 | 0.00 | 0.00 | 85 | 1006.4 |
| 20260506081511 | 78 | 158 | 7.0 | 13.0 | 0.00 | 0.00 | 0.00 | 85 | 1006.3 |
| 20260506073012 | 78 | 149 | 7.0 | 14.0 | 0.00 | 0.00 | 0.00 | 85 | 1006.5 |
| 20260506072511 | 79 | 156 | 8.0 | 13.0 | 0.00 | 0.00 | 0.00 | 85 | 1006.5 |
| 20260506072012 | 78 | 161 | 7.0 | 13.0 | 0.00 | 0.00 | 0.00 | 86 | 1006.5 |
| 20260506071512 | 78 | 155 | 10.0 | 14.0 | 0.00 | 0.00 | 0.00 | 87 | 1006.5 |
| 20260506071012 | 78 | 168 | 9.0 | 12.0 | 0.00 | 0.00 | 0.00 | 87 | 1006.5 |
| 20260506062511 | 78 | 158 | 8.0 | 13.0 | 0.00 | 0.00 | 0.00 | 87 | 1006.8 |
| 20260506062012 | 78 | 161 | 9.0 | 13.0 | 0.00 | 0.00 | 0.00 | 88 | 1006.9 |
| 20260506061512 | 78 | 161 | 9.0 | 14.0 | 0.00 | 0.00 | 0.00 | 88 | 1006.9 |
| 20260506061012 | 78 | 158 | 10.0 | 14.0 | 0.00 | 0.00 | 0.00 | 88 | 1006.9 |
| 20260506060512 | 78 | 154 | 10.0 | 14.0 | 0.00 | 0.00 | 0.00 | 87 | 1006.9 |
| 20260506045013 | 78 | 171 | 8.0 | 17.0 | 0.00 | 0.00 | 0.00 | 87 | 1007.2 |
| 20260506044511 | 78 | 167 | 8.0 | 13.0 | 0.00 | 0.00 | 0.00 | 87 | 1007.2 |
| 20260506044012 | 78 | 169 | 8.0 | 13.0 | 0.00 | 0.00 | 0.00 | 87 | 1007.2 |
| 20260506043512 | 78 | 171 | 7.0 | 13.0 | 0.00 | 0.00 | 0.00 | 87 | 1007.2 |
| 20260506042511 | 78 | 168 | 9.0 | 17.0 | 0.00 | 0.00 | 0.00 | 87 | 1007.0 |
| 20260506042012 | 78 | 165 | 9.0 | 18.0 | 0.00 | 0.00 | 0.00 | 87 | 1007.0 |
| 20260506041511 | 78 | 171 | 9.0 | 14.0 | 0.00 | 0.00 | 0.00 | 87 | 1007.0 |
| 20260506041012 | 78 | 163 | 10.0 | 16.0 | 0.00 | 0.00 | 0.00 | 87 | 1006.9 |
| 20260506040011 | 78 | 176 | 9.0 | 16.0 | 0.00 | 0.00 | 0.00 | 87 | 1006.6 |
| 20260506035511 | 78 | 165 | 10.0 | 16.0 | 0.00 | 0.00 | 0.00 | 87 | 1006.4 |
| 20260506034512 | 78 | 178 | 7.0 | 17.0 | 0.00 | 0.00 | 0.00 | 87 | 1006.5 |
| 20260506034012 | 78 | 155 | 7.0 | 18.0 | 0.00 | 0.00 | 0.00 | 87 | 1006.4 |
| 20260506032511 | 78 | 173 | 8.0 | 13.0 | 0.00 | 0.00 | 0.00 | 86 | 1006.1 |
| 20260506032014 | 78 | 162 | 9.0 | 13.0 | 0.00 | 0.00 | 0.00 | 87 | 1006.2 |
| 20260506031511 | 78 | 161 | 9.0 | 14.0 | 0.00 | 0.00 | 0.00 | 86 | 1006.2 |
| 20260506031013 | 78 | 159 | 9.0 | 14.0 | 0.00 | 0.00 | 0.00 | 86 | 1006.0 |
| 20260506030511 | 78 | 168 | 8.0 | 14.0 | 0.00 | 0.00 | 0.00 | 86 | 1006.0 |
| 20260506030012 | 78 | 154 | 11.0 | 14.0 | 0.00 | 0.00 | 0.00 | 86 | 1005.9 |
| 20260506025512 | 78 | 167 | 9.0 | 14.0 | 0.00 | 0.00 | 0.00 | 86 | 1006.0 |
| 20260506024511 | 79 | 161 | 13.0 | 17.0 | 0.00 | 0.00 | 0.00 | 85 | 1005.6 |
| 20260506023512 | 79 | 155 | 10.0 | 16.0 | 0.00 | 0.00 | 0.00 | 85 | 1005.7 |
| 20260506023012 | 79 | 157 | 10.0 | 17.0 | 0.00 | 0.00 | 0.00 | 84 | 1005.6 |
| 20260506021518 | 79 | 159 | 12.0 | 20.0 | 0.00 | 0.00 | 0.00 | 84 | 1005.5 |
| 20260506021012 | 79 | 156 | 13.0 | 21.0 | 0.00 | 0.00 | 0.00 | 83 | 1005.4 |
| 20260506020512 | 79 | 157 | 13.0 | 18.0 | 0.00 | 0.00 | 0.00 | 83 | 1005.4 |
| 20260506020011 | 80 | 151 | 13.0 | 21.0 | 0.00 | 0.00 | 0.00 | 82 | 1005.3 |
| 20260506015011 | 80 | 150 | 11.0 | 15.0 | 0.00 | 0.00 | 0.00 | 82 | 1005.3 |
| 20260506014012 | 80 | 159 | 11.0 | 18.0 | 0.00 | 0.00 | 0.00 | 81 | 1005.2 |
| 20260506013512 | 80 | 156 | 9.0 | 15.0 | 0.00 | 0.00 | 0.00 | 81 | 1005.2 |
| 20260506012511 | 80 | 154 | 12.0 | 20.0 | 0.00 | 0.00 | 0.00 | 81 | 1005.1 |
| 20260506012012 | 81 | 155 | 11.0 | 18.0 | 0.00 | 0.00 | 0.00 | 80 | 1005.1 |
| 20260506011512 | 81 | 165 | 13.0 | 18.0 | 0.00 | 0.00 | 0.00 | 80 | 1004.9 |
| 20260506011012 | 81 | 158 | 11.0 | 18.0 | 0.00 | 0.00 | 0.00 | 80 | 1004.9 |
| 20260506010512 | 81 | 150 | 11.0 | 17.0 | 0.00 | 0.00 | 0.00 | 79 | 1004.9 |
| 20260506010011 | 81 | 145 | 13.0 | 17.0 | 0.00 | 0.00 | 0.00 | 78 | 1004.9 |
| 20260506005512 | 81 | 151 | 11.0 | 16.0 | 0.00 | 0.00 | 0.00 | 78 | 1004.7 |
| 20260506005011 | 81 | 154 | 13.0 | 17.0 | 0.00 | 0.00 | 0.00 | 78 | 1004.6 |
| 20260506004511 | 82 | 154 | 13.0 | 17.0 | 0.00 | 0.00 | 0.00 | 77 | 1004.6 |
| 20260506004011 | 82 | 165 | 10.0 | 17.0 | 0.00 | 0.00 | 0.00 | 76 | 1004.6 |
| 20260506003511 | 82 | 156 | 15.0 | 21.0 | 0.00 | 0.00 | 0.00 | 76 | 1004.6 |
| 20260506002511 | 82 | 154 | 14.0 | 20.0 | 0.00 | 0.00 | 0.00 | 75 | 1004.5 |
| 20260506002012 | 83 | 157 | 12.0 | 20.0 | 0.00 | 0.00 | 0.00 | 74 | 1004.5 |
| 20260506001512 | 83 | 157 | 13.0 | 20.0 | 0.00 | 0.00 | 0.00 | 74 | 1004.5 |
| 20260506001012 | 83 | 158 | 13.0 | 17.0 | 0.00 | 0.00 | 0.00 | 73 | 1004.4 |
| 20260506000011 | 84 | 147 | 15.0 | 22.0 | 0.00 | 0.00 | 0.00 | 71 | 1004.3 |
| 20260505235511 | 84 | 151 | 15.0 | 22.0 | 0.00 | 0.00 | 0.00 | 71 | 1004.2 |
| 20260505235012 | 85 | 157 | 12.0 | 20.0 | 0.00 | 0.00 | 0.00 | 70 | 1004.3 |
| 20260505234511 | 85 | 158 | 13.0 | 22.0 | 0.00 | 0.00 | 0.00 | 70 | 1004.1 |
| 20260505234011 | 85 | 151 | 13.0 | 20.0 | 0.00 | 0.00 | 0.00 | 70 | 1004.0 |
| 20260505233511 | 84 | 138 | 16.0 | 22.0 | 0.00 | 0.00 | 0.00 | 70 | 1004.0 |
| 20260505233012 | 84 | 145 | 15.0 | 21.0 | 0.00 | 0.00 | 0.00 | 71 | 1004.1 |
| 20260505232511 | 84 | 142 | 13.0 | 22.0 | 0.00 | 0.00 | 0.00 | 72 | 1004.0 |
| 20260505232012 | 84 | 126 | 14.0 | 18.0 | 0.00 | 0.00 | 0.00 | 72 | 1004.0 |
| 20260505231012 | 84 | 129 | 13.0 | 18.0 | 0.00 | 0.00 | 0.00 | 72 | 1004.0 |
| 20260505230011 | 84 | 122 | 14.0 | 21.0 | 0.00 | 0.00 | 0.00 | 71 | 1004.0 |
| 20260505225511 | 84 | 118 | 15.0 | 22.0 | 0.00 | 0.00 | 0.00 | 71 | 1004.1 |
| 20260505225011 | 85 | 121 | 14.0 | 21.0 | 0.00 | 0.00 | 0.00 | 71 | 1004.1 |
| 20260505224511 | 85 | 129 | 13.0 | 21.0 | 0.00 | 0.00 | 0.00 | 70 | 1004.0 |
| 20260505224011 | 85 | 121 | 13.0 | 21.0 | 0.00 | 0.00 | 0.00 | 70 | 1003.9 |
| 20260505223511 | 85 | 110 | 14.0 | 23.0 | 0.00 | 0.00 | 0.00 | 70 | 1004.0 |
| 20260505222512 | 87 | 138 | 14.0 | 20.0 | 0.00 | 0.00 | 0.00 | 66 | 1004.0 |
| 20260505222012 | 88 | 130 | 9.0 | 15.0 | 0.00 | 0.00 | 0.00 | 65 | 1004.0 |
| 20260505221511 | 87 | 135 | 12.0 | 17.0 | 0.00 | 0.00 | 0.00 | 65 | 1004.0 |
| 20260505221011 | 87 | 145 | 13.0 | 18.0 | 0.00 | 0.00 | 0.00 | 65 | 1004.0 |
| 20260505220011 | 87 | 134 | 14.0 | 20.0 | 0.00 | 0.00 | 0.00 | 65 | 1004.1 |
| 20260505214511 | 88 | 178 | 9.0 | 16.0 | 0.00 | 0.00 | 0.00 | 65 | 1004.3 |
| 20260505214011 | 88 | 143 | 13.0 | 21.0 | 0.00 | 0.00 | 0.00 | 64 | 1004.3 |
| 20260505213011 | 89 | 151 | 12.0 | 16.0 | 0.00 | 0.00 | 0.00 | 64 | 1004.3 |
| 20260505212511 | 89 | 141 | 13.0 | 18.0 | 0.00 | 0.00 | 0.00 | 61 | 1004.4 |
| 20260505212012 | 90 | 154 | 10.0 | 16.0 | 0.00 | 0.00 | 0.00 | 59 | 1004.5 |
| 20260505211012 | 90 | 170 | 7.0 | 14.0 | 0.00 | 0.00 | 0.00 | 60 | 1004.7 |
| 20260505210512 | 90 | 143 | 9.0 | 14.0 | 0.00 | 0.00 | 0.00 | 58 | 1004.8 |
| 20260505210011 | 89 | 147 | 9.0 | 12.0 | 0.00 | 0.00 | 0.00 | 59 | 1004.8 |
| 20260505205512 | 89 | 175 | 6.0 | 14.0 | 0.00 | 0.00 | 0.00 | 60 | 1004.9 |
| 20260505205011 | 89 | 151 | 9.0 | 14.0 | 0.00 | 0.00 | 0.00 | 60 | 1005.0 |
| 20260505204511 | 89 | 143 | 10.0 | 14.0 | 0.00 | 0.00 | 0.00 | 59 | 1005.0 |
| 20260505204012 | 89 | 132 | 9.0 | 13.0 | 0.00 | 0.00 | 0.00 | 58 | 1005.1 |
| 20260505203511 | 89 | 173 | 5.0 | 13.0 | 0.00 | 0.00 | 0.00 | 57 | 1005.2 |
| 20260505203011 | 89 | 149 | 7.0 | 13.0 | 0.00 | 0.00 | 0.00 | 59 | 1005.2 |
| 20260505202511 | 89 | 179 | 7.0 | 13.0 | 0.00 | 0.00 | 0.00 | 58 | 1005.3 |
| 20260505202012 | 89 | 153 | 8.0 | 15.0 | 0.00 | 0.00 | 0.00 | 57 | 1005.3 |
| 20260505201512 | 89 | 150 | 8.0 | 21.0 | 0.00 | 0.00 | 0.00 | 59 | 1005.4 |
| 20260505201012 | 90 | 156 | 7.0 | 18.0 | 0.00 | 0.00 | 0.00 | 55 | 1005.5 |
| 20260505200512 | 90 | 172 | 10.0 | 15.0 | 0.00 | 0.00 | 0.00 | 54 | 1005.4 |
| 20260505200011 | 90 | 195 | 7.0 | 12.0 | 0.00 | 0.00 | 0.00 | 57 | 1005.5 |
| 20260505195511 | 90 | 169 | 6.0 | 13.0 | 0.00 | 0.00 | 0.00 | 56 | 1005.6 |
| 20260505195011 | 89 | 183 | 7.0 | 15.0 | 0.00 | 0.00 | 0.00 | 57 | 1005.7 |
| 20260505194511 | 89 | 165 | 6.0 | 12.0 | 0.00 | 0.00 | 0.00 | 57 | 1005.7 |
| 20260505194012 | 89 | 151 | 10.0 | 16.0 | 0.00 | 0.00 | 0.00 | 56 | 1005.7 |
| 20260505193511 | 89 | 202 | 6.0 | 15.0 | 0.00 | 0.00 | 0.00 | 56 | 1005.9 |
| 20260505193011 | 90 | 178 | 5.0 | 14.0 | 0.00 | 0.00 | 0.00 | 57 | 1006.0 |
| 20260505192512 | 90 | 171 | 6.0 | 14.0 | 0.00 | 0.00 | 0.00 | 57 | 1006.1 |
| 20260505192012 | 90 | 181 | 7.0 | 15.0 | 0.00 | 0.00 | 0.00 | 56 | 1006.1 |
| 20260505191512 | 90 | 172 | 9.0 | 15.0 | 0.00 | 0.00 | 0.00 | 56 | 1006.1 |
| 20260505191011 | 89 | 174 | 6.0 | 15.0 | 0.00 | 0.00 | 0.00 | 58 | 1006.2 |
| 20260505190511 | 89 | 194 | 9.0 | 14.0 | 0.00 | 0.00 | 0.00 | 57 | 1006.2 |
| 20260505190011 | 88 | 179 | 7.0 | 10.0 | 0.00 | 0.00 | 0.00 | 60 | 1006.2 |
| 20260505185011 | 88 | 170 | 9.0 | 14.0 | 0.00 | 0.00 | 0.00 | 61 | 1006.3 |
| 20260505184511 | 87 | 161 | 9.0 | 14.0 | 0.00 | 0.00 | 0.00 | 62 | 1006.3 |
| 20260505184011 | 88 | 170 | 7.0 | 13.0 | 0.00 | 0.00 | 0.00 | 60 | 1006.3 |
| 20260505183011 | 88 | 212 | 8.0 | 13.0 | 0.00 | 0.00 | 0.00 | 60 | 1006.4 |
| 20260505182012 | 87 | 186 | 7.0 | 13.0 | 0.00 | 0.00 | 0.00 | 61 | 1006.5 |
| 20260505181511 | 87 | 203 | 9.0 | 14.0 | 0.00 | 0.00 | 0.00 | 62 | 1006.5 |
| 20260505180511 | 86 | 169 | 8.0 | 14.0 | 0.00 | 0.00 | 0.00 | 63 | 1006.5 |
| 20260505180010 | 86 | 212 | 10.0 | 16.0 | 0.00 | 0.00 | 0.00 | 61 | 1006.6 |
| 20260505175511 | 86 | 166 | 7.0 | 12.0 | 0.00 | 0.00 | 0.00 | 65 | 1006.7 |
| 20260505175011 | 85 | 215 | 9.0 | 17.0 | 0.00 | 0.00 | 0.00 | 64 | 1006.8 |
| 20260505174012 | 85 | 203 | 5.0 | 8.0 | 0.00 | 0.00 | 0.00 | 68 | 1007.0 |
| 20260505173511 | 84 | 215 | 6.0 | 15.0 | 0.00 | 0.00 | 0.00 | 69 | 1007.1 |
| 20260505173011 | 84 | 221 | 8.0 | 13.0 | 0.00 | 0.00 | 0.00 | 68 | 1007.2 |
| 20260505172511 | 83 | 160 | 7.0 | 14.0 | 0.00 | 0.00 | 0.00 | 70 | 1007.1 |
| 20260505172012 | 83 | 226 | 9.0 | 13.0 | 0.00 | 0.00 | 0.00 | 70 | 1007.3 |
| 20260505171511 | 83 | 204 | 7.0 | 12.0 | 0.00 | 0.00 | 0.00 | 70 | 1007.3 |
| 20260505171011 | 83 | 211 | 7.0 | 10.0 | 0.00 | 0.00 | 0.00 | 72 | 1007.4 |
| 20260505170511 | 83 | 197 | 7.0 | 10.0 | 0.00 | 0.00 | 0.00 | 71 | 1007.5 |
| 20260505165512 | 83 | 207 | 7.0 | 12.0 | 0.00 | 0.00 | 0.00 | 71 | 1007.5 |
| 20260505165011 | 82 | 215 | 7.0 | 12.0 | 0.00 | 0.00 | 0.00 | 73 | 1007.6 |
| 20260505164511 | 82 | 205 | 8.0 | 12.0 | 0.00 | 0.00 | 0.00 | 73 | 1007.7 |
| 20260505164011 | 81 | 209 | 9.0 | 13.0 | 0.00 | 0.00 | 0.00 | 74 | 1007.7 |
| 20260505163511 | 82 | 228 | 8.0 | 13.0 | 0.00 | 0.00 | 0.00 | 74 | 1007.8 |
| 20260505163011 | 82 | 217 | 7.0 | 12.0 | 0.00 | 0.00 | 0.00 | 74 | 1007.9 |
| 20260505162511 | 81 | 202 | 7.0 | 13.0 | 0.00 | 0.00 | 0.00 | 75 | 1007.9 |
| 20260505162011 | 81 | 211 | 9.0 | 13.0 | 0.00 | 0.00 | 0.00 | 75 | 1007.9 |
| 20260505161511 | 81 | 190 | 8.0 | 13.0 | 0.00 | 0.00 | 0.00 | 76 | 1007.9 |
| 20260505161012 | 81 | 219 | 9.0 | 13.0 | 0.00 | 0.00 | 0.00 | 76 | 1007.9 |
| 20260505160511 | 81 | 209 | 8.0 | 14.0 | 0.00 | 0.00 | 0.00 | 75 | 1007.9 |
| 20260505153011 | 79 | 204 | 10.0 | 16.0 | 0.00 | 0.00 | 0.00 | 79 | 1007.6 |
| 20260505152511 | 79 | 208 | 10.0 | 15.0 | 0.00 | 0.00 | 0.00 | 80 | 1007.6 |
| 20260505152011 | 79 | 215 | 10.0 | 14.0 | 0.00 | 0.00 | 0.00 | 80 | 1007.5 |
| 20260505151511 | 79 | 213 | 9.0 | 14.0 | 0.00 | 0.00 | 0.00 | 80 | 1007.5 |
| 20260505151011 | 79 | 209 | 8.0 | 13.0 | 0.00 | 0.00 | 0.00 | 81 | 1007.5 |
| 20260505150511 | 78 | 225 | 8.0 | 13.0 | 0.00 | 0.00 | 0.00 | 82 | 1007.6 |
| 20260505140511 | 76 | 194 | 5.0 | 10.0 | 0.00 | 0.00 | 0.00 | 87 | 1007.4 |
| 20260505125011 | 74 | 184 | 5.0 | 8.0 | 0.00 | 0.00 | 0.00 | 90 | 1007.4 |
| 20260505124511 | 74 | 193 | 5.0 | 8.0 | 0.00 | 0.00 | 0.00 | 90 | 1007.4 |
| 20260505122510 | 74 | 197 | 6.0 | 9.0 | 0.00 | 0.00 | 0.00 | 90 | 1007.4 |
| 20260505122012 | 74 | 192 | 5.0 | 9.0 | 0.00 | 0.00 | 0.00 | 90 | 1007.3 |
| 20260505121511 | 74 | 192 | 6.0 | 9.0 | 0.00 | 0.00 | 0.00 | 90 | 1007.2 |
| 20260505120511 | 74 | 191 | 7.0 | 9.0 | 0.00 | 0.00 | 0.00 | 90 | 1007.2 |
| 20260505120011 | 74 | 196 | 6.0 | 9.0 | 0.00 | 0.00 | 0.00 | 90 | 1007.2 |
| 20260505115511 | 74 | 202 | 7.0 | 10.0 | 0.00 | 0.00 | 0.00 | 90 | 1007.1 |
| 20260505115011 | 74 | 197 | 7.0 | 12.0 | 0.00 | 0.00 | 0.00 | 90 | 1007.1 |
| 20260505113513 | 74 | 193 | 6.0 | 8.0 | 0.00 | 0.00 | 0.00 | 90 | 1007.0 |
| 20260505113011 | 74 | 192 | 6.0 | 13.0 | 0.00 | 0.00 | 0.00 | 90 | 1007.1 |
| 20260505112510 | 74 | 188 | 6.0 | 9.0 | 0.00 | 0.00 | 0.00 | 90 | 1007.0 |
| 20260505112011 | 74 | 187 | 5.0 | 9.0 | 0.00 | 0.00 | 0.00 | 90 | 1007.0 |
| 20260505111511 | 74 | 202 | 8.0 | 13.0 | 0.00 | 0.00 | 0.00 | 90 | 1007.0 |
| 20260505111011 | 74 | 192 | 7.0 | 12.0 | 0.00 | 0.00 | 0.00 | 90 | 1007.1 |
| 20260505110512 | 74 | 196 | 7.0 | 12.0 | 0.00 | 0.00 | 0.00 | 90 | 1007.1 |
| 20260505102012 | 73 | 193 | 7.0 | 13.0 | 0.00 | 0.00 | 0.00 | 92 | 1006.9 |
| 20260505101011 | 73 | 184 | 6.0 | 10.0 | 0.00 | 0.00 | 0.00 | 92 | 1006.9 |
| 20260505100511 | 73 | 178 | 6.0 | 9.0 | 0.00 | 0.00 | 0.00 | 92 | 1006.9 |
| 20260505100011 | 72 | 172 | 6.0 | 9.0 | 0.00 | 0.00 | 0.00 | 92 | 1007.0 |
| 20260505095510 | 72 | 184 | 5.0 | 9.0 | 0.00 | 0.00 | 0.00 | 92 | 1007.1 |
| 20260505095011 | 72 | 185 | 6.0 | 9.0 | 0.00 | 0.00 | 0.00 | 92 | 1007.1 |
| 20260505094511 | 72 | 178 | 6.0 | 10.0 | 0.00 | 0.00 | 0.00 | 92 | 1007.1 |
| 20260505094014 | 72 | 170 | 6.0 | 9.0 | 0.00 | 0.00 | 0.00 | 92 | 1007.2 |
| 20260505093511 | 72 | 175 | 5.0 | 8.0 | 0.00 | 0.00 | 0.00 | 92 | 1007.2 |